EW5742 Weather Reports


time (UTC)temp
C
wind
direction
speed
KPH
gust
KPH
rain 1hr
cm
rain 24hr
cm
rain mn
cm
humidity
%
barometer
mb
20260506061528 18 141 0.0 1.6 0.00 0.00 0.00 83 1015.8
20260506044532 19 356 1.6 8.0 0.00 0.00 0.00 80 1016.9
20260506043022 19 157 1.6 12.9 0.00 0.00 0.00 80 1017.0
20260506041522 19 141 0.0 4.8 0.00 0.00 0.00 80 1017.2
20260506040017 19 230 0.0 11.3 0.00 0.00 0.00 79 1017.1
20260506034557 20 133 3.2 14.5 0.00 0.00 0.00 78 1017.3
20260506033101 19 175 4.8 9.7 0.00 0.00 0.00 78 1017.2
20260506030020 19 136 0.0 3.2 0.00 0.00 0.00 81 1017.4
20260506024520 19 148 0.0 9.7 0.00 0.00 0.00 80 1017.5
20260506023105 19 144 0.0 11.3 0.00 0.00 0.00 79 1017.4
20260506021701 19 129 3.2 12.9 0.00 0.00 0.00 80 1017.5
20260506020029 19 176 1.6 19.3 0.00 0.00 0.00 81 1017.3
20260506014526 18 131 0.0 6.4 0.00 0.00 0.00 83 1017.1
20260506013006 18 135 0.0 3.2 0.00 0.00 0.00 83 1017.1
20260506011531 18 122 0.0 1.6 0.00 0.00 0.00 82 1017.1
20260506010038 18 164 0.0 0.0 0.00 0.00 0.00 82 1017.0
20260506004545 18 142 0.0 3.2 0.00 0.00 0.00 80 1016.9
20260506003013 18 195 0.0 4.8 0.00 0.00 0.00 78 1016.9
20260506001510 18 131 0.0 1.6 0.00 0.00 0.00 76 1016.9
20260506000014 19 160 0.0 3.2 0.00 0.00 0.00 74 1016.9
20260505234514 20 155 0.0 8.0 0.00 0.00 0.00 73 1017.0
20260505233058 20 129 0.0 6.4 0.00 0.00 0.00 72 1017.0
20260505233025 20 143 0.0 9.7 0.00 0.00 0.00 72 1016.9
20260505231558 21 254 3.2 12.9 0.00 0.00 0.00 70 1016.9
20260505224555 21 139 8.0 19.3 0.00 0.00 0.00 67 1016.9
20260505223021 22 119 3.2 22.5 0.00 0.00 0.00 65 1017.0
20260505221522 22 127 3.2 14.5 0.00 0.00 0.00 63 1016.9
20260505214558 22 218 4.8 17.7 0.00 0.00 0.00 64 1016.7
20260505213055 22 146 6.4 19.3 0.00 0.00 0.00 65 1016.6
20260505213003 22 129 9.7 19.3 0.00 0.00 0.00 65 1016.7
20260505211553 22 131 11.3 22.5 0.00 0.00 0.00 64 1016.7
20260505210054 22 264 8.0 19.3 0.00 0.00 0.00 66 1017.0
20260505204527 22 135 9.7 24.1 0.00 0.00 0.00 64 1016.9
20260505203027 22 176 11.3 22.5 0.00 0.00 0.00 64 1017.0
20260505201557 23 148 9.7 20.9 0.00 0.00 0.00 61 1017.1
20260505200052 23 108 9.7 24.1 0.00 0.00 0.00 62 1017.4
20260505194601 23 158 6.4 32.2 0.00 0.00 0.00 63 1017.6
20260505193056 23 153 11.3 25.7 0.00 0.00 0.00 60 1017.8
20260505191547 23 11 8.0 20.9 0.00 0.00 0.00 61 1018.0
20260505190045 23 205 4.8 22.5 0.00 0.00 0.00 61 1018.1
20260505184510 23 131 8.0 17.7 0.00 0.00 0.00 63 1018.0
20260505183016 23 155 11.3 24.1 0.00 0.00 0.00 62 1018.1
20260505181607 23 286 3.2 22.5 0.00 0.00 0.00 63 1018.2
20260505180103 23 120 3.2 17.7 0.00 0.00 0.00 65 1018.3
20260505174555 23 176 9.7 25.7 0.00 0.00 0.00 63 1018.2
20260505173052 23 198 9.7 22.5 0.00 0.00 0.00 62 1018.4
20260505171518 23 143 4.8 16.1 0.00 0.00 0.00 62 1018.2
20260505170018 24 117 8.0 22.5 0.00 0.00 0.00 60 1018.4
20260505164646 24 256 1.6 16.1 0.00 0.00 0.00 60 1018.5
20260505163044 23 141 11.3 24.1 0.00 0.00 0.00 60 1018.6
20260505161550 23 337 9.7 22.5 0.00 0.00 0.00 62 1018.7
20260505153104 24 179 11.3 20.9 0.00 0.00 0.00 59 1018.6
20260505151554 24 127 3.2 19.3 0.00 0.00 0.00 58 1018.7
20260505124535 21 98 0.0 6.4 0.00 0.00 0.00 69 1018.5
20260505123024 20 110 0.0 3.2 0.00 0.00 0.00 76 1018.5
20260505121606 19 137 0.0 3.2 0.00 0.00 0.00 82 1018.5
20260505120049 17 141 0.0 0.0 0.00 0.00 0.00 90 1018.5
20260505114508 15 141 0.0 0.0 0.00 0.00 0.00 93 1018.4
20260505113012 13 141 0.0 0.0 0.00 0.00 0.00 92 1018.3
20260505111602 12 141 0.0 0.0 0.00 0.00 0.00 93 1018.2
20260505101552 11 140 0.0 0.0 0.00 0.00 0.00 92 1017.4
20260505100045 12 140 0.0 0.0 0.00 0.00 0.00 92 1017.2
20260505094533 12 141 0.0 0.0 0.00 0.00 0.00 92 1017.1
20260505093023 12 141 0.0 0.0 0.00 0.00 0.00 91 1016.9
20260505091520 12 141 0.0 0.0 0.00 0.00 0.00 91 1017.0
20260505090018 12 141 0.0 0.0 0.00 0.00 0.00 90 1016.8
20260505084554 13 141 0.0 0.0 0.00 0.00 0.00 90 1016.8
20260505083052 13 141 0.0 0.0 0.00 0.00 0.00 90 1016.8
20260505081547 13 141 0.0 0.0 0.00 0.00 0.00 89 1016.7
20260505080047 13 141 0.0 0.0 0.00 0.00 0.00 89 1016.6
20260505074522 14 141 0.0 0.0 0.00 0.00 0.00 88 1016.5
20260505073019 14 141 0.0 0.0 0.00 0.00 0.00 87 1016.5
20260505071545 15 141 0.0 1.6 0.00 0.00 0.00 85 1016.5